Home   Weather   Walnut Creek   Past weeks

Flag for USA Past Weather in Walnut Creek, California, USA — Yesterday and Last 2 Weeks

72 °F

Light rain. Partly sunny.

Feels Like: 77 °F
Forecast: 59 / 71 °F
Wind: 12 mph from South

Location: Buchanan Field

Current Time: Oct 25, 2016 at 3:52:38 PM

Latest Report: Oct 25, 2016 at 2:53 PM

Visibility: 10 mi

Pressure: 29.99 "Hg

Humidity: 52%

Dew Point: 53 °F

Location of Walnut CreekLocation

Past Weather in Walnut Creek — Graph


Walnut Creek Temperature Yesterday

Maximum temperature yesterday: 69 °F (at 1:53 PM)
Minimum temperature yesterday: 61 °F (at 12:53 AM)
Average temperature yesterday: 64 °F

High & Low Weather Summary for the Past Weeks

High83 °F (Oct 20, 4:53 PM)90% (Oct 15, 12:53 AM)30.17 "Hg (Oct 15, 12:53 AM)
Low50 °F (Oct 18, 6:53 AM)21% (Oct 19, 2:53 PM)29.70 "Hg (Oct 16, 2:53 PM)
Average63 °F63%29.94 "Hg
* Reported Oct 10 1:53 PM — Oct 25 1:53 PM, Walnut Creek, Weather by CustomWeather, © 2016

Note: Actual official high and low records may vary slightly from our data, if they occured in-between our weather recording intervals... More about our weather records


Walnut Creek Weather History for the Previous 24 Hours

Scroll right to see more
Time TempWeatherWind HumidityBarometerVisibility
1:53 PM
Tue, Oct 25
71 °FLight rain. Mostly cloudy.10 mph53%30.00 "Hg10 mi
12:53 PM68 °FMore clouds than sun.7 mph57%30.03 "Hg10 mi
11:53 AM69 °FOvercast.7 mph53%30.02 "Hg10 mi
10:53 AM68 °FBroken clouds.7 mph55%30.02 "Hg10 mi
9:53 AM66 °FOvercast.5 mph59%30.01 "Hg10 mi
8:53 AM65 °FBroken clouds.8 mph61%30.00 "Hg10 mi
7:53 AM62 °FOvercast.5 mph73%29.98 "Hg10 mi
6:53 AM62 °FPassing clouds.No wind70%29.97 "Hg10 mi
5:53 AM63 °FOvercast.14 mph68%29.95 "Hg10 mi
4:53 AM65 °FLight rain. Overcast.17 mph61%29.94 "Hg10 mi
3:53 AM66 °FPassing clouds.17 mph59%29.93 "Hg10 mi
2:53 AM66 °FOvercast.15 mph56%29.95 "Hg10 mi
1:53 AM66 °FMostly cloudy.17 mph52%29.94 "Hg10 mi
12:53 AM66 °FMostly cloudy.14 mph52%29.94 "Hg10 mi
11:53 PM
Mon, Oct 24
65 °FMostly cloudy.13 mph56%29.94 "Hg10 mi
10:53 PM64 °FOvercast.10 mph61%29.94 "Hg10 mi
9:53 PM63 °FPassing clouds.10 mph65%29.93 "Hg10 mi
8:53 PM62 °FMostly cloudy.15 mph65%29.93 "Hg10 mi
7:53 PM62 °FOvercast.13 mph70%29.91 "Hg10 mi
6:53 PM64 °FLight rain. Mostly cloudy.14 mph63%29.91 "Hg10 mi
5:53 PM65 °FOvercast.10 mph56%29.92 "Hg10 mi
4:53 PM64 °FPartly sunny.14 mph63%29.90 "Hg10 mi
3:53 PM67 °FPartly sunny.16 mph51%29.90 "Hg10 mi
Weather by CustomWeather, © 2016

See weather overviewHow to use our weather pages